Regional Weather Roundup
Issued by NWS Cleveland, OH

Home | Current Version | Previous Version | Text Only | Print | Product List | Glossary Off
Versions: 1 2 3 4 5 6 7 8 9 10 11 12 13 14 15 16 17 18 19 20 21 22 23 24 25 26 27 28 29 30 31 32 33 34 35 36 37 38 39 40 41 42 43 44 45 46 47 48 49 50

000
ASUS41 KCLE 290310
RWRCLE
OHIO REGIONAL WEATHER ROUNDUP
NATIONAL WEATHER SERVICE WILMINGTON, OH
1100 PM EDT MON JUL 28 2014

NOTE: "FAIR" INDICATES FEW OR NO CLOUDS BELOW 12,000 FEET WITH NO
SIGNIFICANT WEATHER AND/OR OBSTRUCTIONS TO VISIBILITY.

OHZ001>008-015>018-024>027-034-035-043-044-290400-
   NORTHWEST OHIO

CITY           SKY/WX    TMP DP  RH WIND       PRES   REMARKS
DEFIANCE       PTCLDY    59  52  77 NW6       30.02R
FINDLAY        CLOUDY    65  53  65 NW6       29.98R
TOLEDO EXPRESS CLOUDY    61  50  67 N13       30.01R
TOLEDO METCALF MOCLDY    63  50  62 N8        30.01R
LIMA           CLOUDY    60  52  74 NW12      30.01R
$$

OHZ009>014-019>023-028>033-038-089-290400-
   NORTHEAST OHIO

CITY           SKY/WX    TMP DP  RH WIND       PRES   REMARKS
CLE-HOPKINS    CLOUDY    60  48  64 N12       30.00R
CLE-LAKEFRONT  CLOUDY    62  49  62 N16G24    29.97R
CUY CO. ARPT   MOCLDY    61  50  67 N12       29.98S
LORAIN-ELYRIA  CLOUDY    63  51  65 NE12      29.99R
ASHTABULA      CLOUDY    57  46  66 NW5       29.96S
AKRON-CANTON   CLOUDY    59  50  72 N7        29.97S
WOOSTER        CLOUDY    61  53  75 N6        29.99R
MANSFIELD      CLOUDY    60  55  83 N7        29.99R
YOUNGSTOWN     CLOUDY    57  50  77 NW7       29.96S
$$

OHZ042-051>053-060>062-070>072-077>081-290400-
  SOUTHWEST OHIO

CITY           SKY/WX    TMP DP  RH WIND       PRES   REMARKS
CINC-COVINGTON CLEAR     62  51  67 NW7       30.02R
CINC-LUNKEN    CLEAR     63  53  70 NW3       30.02R
HAMILTON       CLEAR     60  53  77 NW7       30.03R
DAYTON         CLEAR     59  52  77 NW8       30.02S
WRIGHT-PAT AFB CLEAR     61  54  79 NW9       30.01S
DAYTON GENERAL CLEAR     61  53  75 NW7       30.01R
WILMINGTON     CLEAR     61  53  75 NW12      30.00R
$$

OHZ036-037-039>041-045>050-054>059-063>069-073>076-082>088-290400-
  CENTRAL AND SOUTHEAST OHIO

CITY           SKY/WX    TMP DP  RH WIND       PRES   REMARKS
COLUMBUS       CLOUDY    67  56  67 CALM      29.95S
OSU AIRPORT    CLOUDY    64  57  78 NW9       29.97R
BOLTON FIELD   CLOUDY    63  57  81 NW10G16   29.98S
RICKENBACK AFB CLOUDY    66  53  63 NW10      29.96S
NEWARK         PTCLDY    59  55  87 CALM      29.96S
MARION         CLOUDY    62  56  80 N3        29.98R
LANCASTER      MOCLDY    60  57  89 CALM      29.96S
ZANESVILLE     CLOUDY    62  52  69 CALM      29.96S
NEW PHILLY     MOCLDY    57  53  86 NE3       29.97R
$$


USA.gov is the U.S. government's official web portal to all federal, state and local government web resources and services.